0 HST 1 20580U 90037B 26104.23629456 .00003908 00000-0 12299-3 0 9990 2 20580 28.4729 157.4075 0002271 151.2476 208.8245 15.30044126778766 0 ISS (ZARYA) 1 25544U 98067A 26104.13467087 .00005375 00000-0 10597-3 0 9994 2 25544 51.6322 257.0967 0006556 310.1862 49.8552 15.48905907561823 0 CXO 1 25867U 99040B 26105.90737653 .00000932 00000-0 00000-0 0 9998 2 25867 55.1609 118.4976 7943121 310.5395 0.1381 0.37807016 17086